#timestamp,LO_Frequency,Hit 
1505646015.3,286047000.3,N
1505646035.1,286046998.9,N
1505646055.9,286046998.8,N
1505646075.7,286047000.6,N
1505646095.5,286047002.8,N
1505646115.4,286046998.9,N
1505646135.2,286047001.1,N
1505646155.0,286046999.0,N
1505646155.9,286046999.0,N
1505646175.8,286046997.3,N
1505646195.6,286046996.7,N
1505646215.4,286047000.7,N
1505646235.3,286046997.0,N
1505646255.1,286046996.3,N
1505646256.0,286046996.3,N
1505646275.8,286046994.0,N
1505646295.7,286046993.9,N
1505646315.5,286046994.3,N
1505646335.3,286046996.1,N
1505646355.1,286046995.9,N
1505646375.9,286046994.6,N
1505646395.7,286046996.3,N
1505646415.5,286046992.6,N
1505646435.4,286046990.5,P
1505646455.2,286046996.1,N
1505646475.0,286046995.1,N
1505646475.9,286046995.1,N
1505646495.8,286046996.0,N
1505646515.6,286046997.0,N
1505646535.4,286046997.6,N
1505646555.3,286046997.9,N
1505646575.1,286046994.4,N
1505646595.8,286046997.0,N
1505646615.7,286046997.6,N
1505646635.5,286046994.0,P
1505646655.3,286046995.2,P
1505646675.2,286046993.4,P
1505646695.9,286046997.7,N
1505646715.7,286046996.6,N
1505646735.6,286046993.4,P
1505646755.4,286046999.7,N
1505646775.2,286047001.2,N
1505646795.1,286046995.2,N
1505646796.0,286046995.2,N
1505646815.8,286046994.1,N
1505646835.6,286046996.8,N
1505646855.5,286046999.6,N
1505646875.3,286047000.9,N
1505646895.1,286047002.8,N
1505646915.9,286046997.1,N
1505646935.7,286046992.1,N
1505646955.5,286046992.8,N
1505646975.3,286046991.8,N
1505646995.2,286046996.9,N
1505647015.0,286046993.6,N
1505647015.9,286046993.6,N
1505647035.7,286046993.3,N
1505647055.6,286046993.3,N
1505647075.4,286046995.8,N
1505647095.2,286046991.7,N
1505647115.1,286046992.8,N
1505647116.0,286046992.8,N
1505647135.8,286046992.6,N
1505647155.6,286046995.4,N
1505647175.5,286046995.7,N
1505647195.3,286046996.7,N
1505647215.1,286046997.3,N
1505647235.9,286046993.3,N
1505647255.7,286046998.0,N
1505647275.5,286046992.0,N
1505647295.4,286046991.7,N
1505647315.2,286046991.0,P
1505647335.0,286046992.4,P
1505647335.9,286046992.4,P
1505647355.8,286046994.4,P
1505647375.6,286047005.7,P
1505647395.4,286047007.5,N
1505647415.3,286047003.1,N
1505647435.1,286047001.3,N
1505647436.0,286047001.3,N
1505647455.8,286047005.7,N
1505647475.7,286047005.7,N
1505647495.5,286047003.3,N
1505647515.3,286047005.7,N
1505647535.2,286047007.0,N
1505647555.9,286047008.7,N
1505647575.7,286047007.0,N
1505647595.6,286047001.7,N
1505647615.4,286047003.4,N
1505647635.2,286047007.1,N
1505647655.0,286047007.1,N
1505647655.9,286047007.1,N
1505647675.8,286047003.9,N
1505647695.6,286047000.7,N
1505647715.4,286046998.8,N
1505647735.3,286047000.0,N
1505647755.1,286047000.8,N
1505647775.8,286047002.4,N
1505647795.7,286046999.9,N
1505647815.5,286046997.0,N
1505647835.3,286046999.5,N
1505647855.2,286046998.1,N
1505647875.9,286047002.8,N
1505647895.7,286046999.1,N
1505647915.6,286046995.5,N
1505647935.4,286046997.9,N
1505647955.2,286046997.6,N
1505647975.0,286046995.1,N
1505647975.9,286046995.1,N
1505647995.8,286046999.0,N
1505648015.6,286047002.6,N
1505648035.4,286046996.9,N
1505648055.3,286046997.6,N
1505648075.1,286046997.6,N
1505648095.8,286046999.5,N
1505648115.7,286046998.8,N
1505648135.5,286046998.9,N
1505648155.3,286046996.9,N
1505648175.2,286046995.9,N
1505648195.9,286046999.0,N
1505648215.7,286046998.3,N
1505648235.6,286047000.6,N
1505648255.4,286047000.4,N
1505648275.2,286046998.4,N
1505648295.0,286046998.1,N
1505648296.0,286046998.1,N
1505648315.8,286046998.2,N
1505648335.6,286047000.1,N
1505648355.4,286047002.0,N
1505648375.3,286047004.0,N
1505648395.1,286047003.8,N
1505648415.8,286047003.9,N
1505648435.7,286046997.7,N
1505648455.5,286046999.0,N
1505648475.3,286046996.0,N
1505648495.2,286046995.3,N
1505648515.9,286046993.7,N
1505648535.7,286046995.8,N
1505648555.6,286046997.0,N
1505648575.4,286046994.2,N
1505648595.2,286046997.6,N
1505648615.1,286046996.3,N
1505648616.0,286046996.3,N
1505648635.8,286046994.7,N
1505648655.6,286046993.0,N
1505648675.5,286046992.6,N
1505648695.3,286046990.4,P
1505648715.1,286046997.4,N
1505648735.9,286046999.4,N
1505648755.7,286046997.6,N
1505648775.5,286046995.1,N
1505648795.3,286046997.3,N
1505648815.2,286046999.4,N
1505648835.0,286046999.0,N
1505648835.9,286046999.0,N
1505648855.7,286046995.1,N
1505648875.6,286046996.9,N
1505648895.4,286046998.4,N
1505648915.2,286046996.7,N
1505648935.1,286046998.0,N
1505648936.0,286046998.0,N
1505648955.8,286046996.4,N
1505648975.6,286046993.6,P
1505648995.5,286046997.1,N
1505649015.3,286046995.9,N
1505649035.1,286046994.0,P
1505649055.9,286046995.7,P
1505649075.7,286047002.7,P
1505649095.5,286047001.9,N
1505649115.4,286047001.7,N
1505649135.2,286046999.7,N
1505649155.0,286047000.8,N
1505649155.9,286047000.8,N
1505649175.8,286046998.2,N
1505649195.6,286047000.6,N
1505649215.4,286046998.8,N
1505649235.3,286046997.2,N
1505649255.1,286046999.7,N
1505649256.0,286046999.7,N
1505649275.8,286047002.6,N
1505649295.7,286047000.5,N
1505649315.5,286046997.2,N
1505649335.3,286047000.6,N
1505649355.1,286047004.4,N
1505649375.9,286046997.0,N
1505649395.7,286046997.0,N
1505649415.5,286046995.0,N
1505649435.4,286046993.4,N
1505649455.2,286046999.2,N
1505649475.0,286046995.1,N
1505649475.9,286046995.1,N
1505649495.8,286046997.3,N
1505649515.6,286047000.7,N
1505649535.4,286046995.3,N
1505649555.3,286046993.9,N
1505649575.1,286046993.6,N
1505649576.0,286046993.6,N
1505649595.8,286046996.1,N
